Flag for U.S.A. Weather past 2 weeks in Nashville, Tennessee, U.S.A.

59 °F

Passing clouds.

Feels Like: 57 °F
Forecast: 57 / 68 °F
Wind: 10 mph from South

Location: Nashville International Airport

Current Time: Nov 27, 2015 at 1:14:19 AM

Latest Report: Nov 26, 2015 at 11:53 PM

Visibility: 10 mi

Pressure: 30.42 "Hg

Humidity: 64%

Dew point: 47 °F

Location of NashvilleLocation

Historic Weather in Nashville — Graph


Nashville temperature yesterday

Maximum temperature yesterday: 72 °F (at 1:53 PM)
Minimum temperature yesterday: 52 °F (at 3:53 AM)
Average temperature yesterday: 60 °F

Past Weeks' High & Low Weather Summary

High72 °F (Nov 17, 10:53 AM)94% (Nov 18, 9:55 AM)30.54 "Hg (Nov 18, 9:55 AM)
Low22 °F (Nov 23, 2:53 AM)14% (Nov 13, 1:53 PM)29.71 "Hg (Nov 18, 12:53 PM)
Average51 °F57%30.21 "Hg
* Reported Nov 11 11:53 PM — Nov 26 11:53 PM, Nashville, Weather by CustomWeather, © 2015

Note: Actual official high and low records may vary slightly from our data, if they occured in-between our weather recording intervals... More about our weather records


Nashville weather history for previous 24 hours

Time TempWeatherWind HumidityBarometerVisibility
11:53 PM
Thu, Nov 26
59 °FPassing clouds.10 mph64%30.42 "Hg10 mi
10:53 PM60 °FPassing clouds.10 mph60%30.44 "Hg10 mi
9:53 PM59 °FPassing clouds.8 mph62%30.43 "Hg10 mi
8:53 PM59 °FPassing clouds.7 mph62%30.42 "Hg10 mi
7:53 PM60 °FPassing clouds.6 mph58%30.42 "Hg10 mi
6:53 PM61 °FPassing clouds.9 mph56%30.42 "Hg10 mi
5:53 PM63 °FPassing clouds.9 mph52%30.42 "Hg10 mi
4:53 PM65 °FPassing clouds.8 mph49%30.42 "Hg10 mi
3:53 PM70 °FPassing clouds.12 mph42%30.42 "Hg10 mi
2:53 PM71 °FPassing clouds.15 mph41%30.42 "Hg10 mi
1:53 PM72 °FScattered clouds.14 mph40%30.43 "Hg10 mi
12:53 PM70 °FScattered clouds.17 mph42%30.45 "Hg10 mi
11:53 AM67 °FMostly cloudy.15 mph47%30.49 "Hg10 mi
10:53 AM65 °FMostly cloudy.14 mph47%30.53 "Hg10 mi
9:53 AM63 °FMore clouds than sun.16 mph47%30.54 "Hg10 mi
8:53 AM59 °FMore clouds than sun.14 mph51%30.53 "Hg10 mi
7:53 AM57 °FMore clouds than sun.13 mph51%30.53 "Hg10 mi
6:53 AM53 °FBroken clouds.8 mph55%30.53 "Hg10 mi
5:53 AM54 °FPassing clouds.13 mph53%30.52 "Hg10 mi
4:53 AM53 °FPassing clouds.9 mph52%30.50 "Hg10 mi
3:53 AM52 °FPassing clouds.6 mph55%30.48 "Hg10 mi
2:53 AM53 °FClear.10 mph55%30.48 "Hg10 mi
1:53 AM53 °FClear.16 mph55%30.46 "Hg10 mi
Weather by CustomWeather, © 2015

See weather overviewHow to use our weather pages